Vertical_Velocity
-1 -2 -1 0 -1 -1 -2 -2 -2 -1 -1 -2 -1 -1 -2 -2 -1 -1 -2 -1 -0 -1 -1 -1 -2 -2 -1 -0 0 -1 -0 1 1 -0 1 1 1 1 0 1 3 1 0
-1 -2 -1 -1 -1 0 -1 -1 0 -1 0 -1 -2 -1 -0 -3 -1 -2 -3 -2 -3 -3 -2 -1 -1 -0 -0 -0 -0 -1 1 1 0 1 1 1 2 1 1 1 2 1 1
0 -2 -0 -1 -1 0 0 -1 -1 -0 -1 0 -0 -2 -2 0 -2 -1 -2 -1 -3 -2 -2 -2 -0 -1 -2 -1 1 0 -1 1 1 1 -0 -1 0 2 1 -5 -1 2 2
1 -0 -1 -4 -3 1 1 -0 -2 -2 -1 2 0 -0 -2 -1 -1 -1 -1 -2 -2 -1 -0 1 0 -1 -1 -1 -1 -1 -1 -1 -0 -3 -4 -1 -1 -1 -1 2 1 -0 0
-1 -2 -0 -0 -2 -1 -0 1 0 -2 -1 1 2 1 -0 -0 -2 -2 -2 -1 -1 -1 -0 0 -0 -1 -2 -2 -2 -1 -0 -1 -1 -1 -4 -2 -2 0 0 -0 0 -1 -1
-1 -0 -1 1 -2 -2 -1 -1 -1 -2 -1 -1 0 1 1 -0 -1 -3 -3 -3 -2 -2 -1 -0 0 0 -0 -1 -1 -2 -1 -0 1 1 2 -1 -1 -1 -1 -1 -0 0 0
-0 -1 1 0 -1 -2 -4 -1 -1 -1 -3 -0 -0 -1 -1 -2 -2 -2 -1 -1 -2 -2 -1 -1 -1 -1 -2 -2 -2 -2 -1 -0 -0 0 3 1 3 2 2 1 -0 -1 -1
3 1 1 1 -0 -1 -2 -3 -1 0 -2 -1 -1 0 0 -1 -2 -2 -2 -3 -3 -1 -0 -1 -1 -0 -1 -2 -2 -1 -1 -2 -2 -0 0 0 0 1 1 1 1 0 1
-0 0 5 1 -1 -1 -0 0 -1 -3 -1 1 0 -0 -1 -0 -1 -2 -3 -3 -2 -3 -2 -1 -1 -1 -1 -1 -2 0 0 -2 -3 -2 -2 -1 -1 -1 -1 0 1 2 2
4 3 3 4 3 1 2 1 1 -1 -2 -0 0 0 1 0 -0 0 -2 -1 -2 -2 -1 -1 -0 0 1 -1 -1 0 -0 -1 -0 -1 -3 -2 -2 -1 -0 1 0 1 1
4 4 4 4 4 3 -0 3 0 1 -2 -3 0 -1 -1 -1 -1 -3 3 -2 -1 -1 -2 -1 -0 -1 -1 -1 -1 -1 -0 -1 -2 -2 -2 -3 -3 -3 -2 -2 -1 -0 -1
3 3 2 -1 4 4 4 -4 -1 3 0 -1 -1 -2 -1 0 -2 -2 -2 0 -1 0 -0 -2 -2 -1 -2 -2 -3 0 -3 -2 -1 -1 -1 -2 -2 -2 -2 -3 -3 -2 -1
1 4 2 6 5 3 4 2 3 1 3 2 -2 -2 -2 -1 -0 -0 -1 -1 -0 0 -2 -2 -5 -3 -4 -3 -6 -3 -3 -3 -1 0 1 -1 -2 -2 -2 -3 -3 -2 -1
-0 3 4 4 4 2 0 2 2 1 0 7 1 -1 -3 -2 -2 -2 -1 -3 -1 -0 3 -8 -7 -7 -5 -5 -8 -4 -5 -5 -3 -2 -4 -4 -4 -3 -3 -2 -2 -2 -3
6 4 4 5 5 2 0 -1 -1 4 -1 2 -1 5 2 -3 1 -1 -0 -1 3 0 8 1 -5 -2 -3 -4 -8 -4 -4 -2 -4 -2 -3 -2 -3 -3 -2 -2 -1 -2 -2
2 4 6 5 8 6 1 -0 1 2 0 2 -5 19 2 6 0 -0 -1 1 -2 -7 1 5 5 -2 1 -2 -4 0 -0 -0 -1 -0 -2 -2 -3 -2 -3 -1 -2 -1 0
11 3 3 6 4 3 -0 1 -2 -2 -1 -0 1 -1 0 5 0 16 -4 -2 1 -4 -3 2 1 1 7 -1 -3 -2 -4 0 -0 -5 -5 -6 -5 -3 -2 -4 -6 -3 -5
4 9 0 -0 -2 0 -1 -1 -1 -1 -2 -0 1 16 2 -3 10 7 2 -1 -0 -4 -3 4 3 0 3 0 -2 3 0 -2 -4 -0 -3 -2 -1 -1 -2 -7 -5 -2 -6
-0 -0 5 1 4 1 -2 2 3 2 2 2 0 3 1 1 7 2 -1 -1 -2 -3 -2 0 2 0 4 -3 1 -4 1 -1 -0 -2 -2 -4 -3 -5 -4 -6 -2 -6 -7
3 5 4 5 -1 -4 -1 3 3 0 -1 2 1 0 22 14 5 11 8 0 0 2 -2 -4 -0 -2 -2 0 -6 -5 9 -3 5 -2 -8 -3 -4 -6 -9 -2 2 -4 -1
-0 -0 2 -1 -5 -13 71 -3 2 6 2 2 0 2 11 18 1 12 -1 4 7 3 -0 -2 -1 -2 -1 0 -6 2 -3 0 6 -1 -5 -3 -3 -14 -6 2 -8 -5 -7
3 1 -1 -1 -3 3 31 -16 8 2 2 1 4 10 11 8 10 5 7 6 2 0 -0 -5 0 -0 -1 -1 1 -2 -1 3 9 10 -5 8 -13 1 -0 3 -2 -7 -7
-4 -2 0 2 -1 12 -9 -5 6 2 0 -1 22 11 19 12 4 9 4 -0 1 -1 -6 -2 4 1 1 1 0 3 3 -6 -1 -1 -12 9 -13 14 0 4 -6 -9 -8
-8 0 1 -1 -2 -18 17 7 2 2 5 6 19 7 6 7 3 -3 -4 0 -1 0 -4 1 -5 -4 -5 -3 -3 -4 -2 -0 3 6 -7 0 -1 8 6 6 -5 -6 -9
39 -1 -0 6 1 24 -5 3 -1 2 11 17 -4 3 6 1 -0 -5 -5 0 5 2 2 1 -3 1 0 2 -5 -0 -0 -2 1 10 -6 -16 11 -2 6 2 -4 -7 -7
-1 -2 26 15 9 4 10 11 8 14 7 -8 1 8 2 1 4 3 -1 2 1 1 7 6 1 -2 -5 -1 2 -1 2 3 -2 16 -18 -1 13 -17 23 -2 -5 -7 -1
Height
5824 5824 5825 5825 5825 5826 5826 5826 5826 5825 5825 5824 5823 5823 5822 5821 5820 5819 5817 5815 5814 5813 5812 5810 5808 5807 5806 5805 5805 5804 5804 5803 5802 5802 5803 5803 5802 5803 5803 5804 5804 5804 5804
5818 5818 5819 5819 5819 5820 5819 5819 5819 5819 5819 5819 5819 5817 5817 5815 5814 5813 5811 5810 5808 5806 5805 5803 5802 5801 5800 5799 5798 5797 5796 5796 5795 5795 5795 5794 5795 5795 5796 5796 5795 5795 5796
5811 5811 5812 5812 5812 5813 5814 5813 5813 5812 5813 5812 5813 5812 5810 5809 5808 5806 5804 5803 5801 5799 5797 5795 5794 5793 5793 5792 5792 5791 5790 5789 5789 5788 5787 5787 5787 5787 5788 5787 5787 5787 5787
5804 5805 5805 5806 5805 5806 5807 5807 5807 5806 5806 5805 5805 5804 5803 5802 5801 5799 5797 5796 5794 5792 5790 5788 5787 5785 5785 5784 5784 5784 5783 5782 5781 5780 5779 5779 5778 5778 5778 5778 5777 5777 5776
5797 5798 5798 5798 5798 5799 5799 5799 5800 5800 5799 5798 5797 5796 5795 5794 5793 5791 5790 5788 5786 5784 5782 5781 5779 5778 5777 5776 5775 5775 5774 5773 5772 5771 5769 5769 5768 5768 5767 5766 5766 5765 5765
5789 5790 5790 5790 5791 5792 5792 5792 5792 5792 5792 5791 5790 5789 5788 5787 5785 5784 5782 5780 5779 5777 5775 5773 5772 5770 5769 5767 5766 5765 5763 5762 5761 5760 5758 5757 5755 5755 5754 5754 5753 5752 5752
5782 5782 5783 5784 5783 5784 5784 5785 5785 5785 5784 5783 5783 5782 5780 5779 5777 5775 5774 5772 5771 5770 5767 5766 5764 5762 5760 5758 5756 5755 5753 5751 5749 5748 5746 5745 5743 5741 5740 5739 5738 5738 5738
5774 5775 5775 5775 5775 5776 5776 5777 5777 5776 5777 5776 5776 5775 5774 5773 5770 5769 5767 5765 5764 5761 5759 5757 5755 5753 5751 5748 5746 5744 5742 5740 5738 5736 5734 5733 5731 5730 5728 5727 5725 5724 5724
5765 5766 5765 5765 5766 5767 5768 5769 5770 5769 5768 5768 5768 5768 5766 5765 5763 5761 5759 5757 5756 5754 5751 5749 5747 5744 5742 5739 5737 5735 5732 5729 5726 5724 5722 5720 5718 5717 5716 5714 5713 5712 5710
5754 5756 5756 5757 5758 5759 5760 5760 5760 5761 5760 5760 5759 5758 5757 5756 5754 5753 5752 5750 5747 5745 5743 5740 5737 5735 5732 5730 5727 5725 5722 5719 5716 5713 5710 5707 5705 5703 5701 5700 5698 5696 5695
5743 5745 5746 5747 5748 5749 5750 5750 5751 5751 5751 5751 5751 5749 5748 5746 5745 5744 5742 5740 5737 5735 5732 5730 5727 5723 5721 5718 5716 5713 5711 5708 5704 5701 5698 5695 5692 5689 5686 5684 5682 5680 5677
5731 5733 5734 5737 5739 5739 5740 5740 5741 5742 5742 5742 5742 5740 5739 5737 5735 5733 5732 5730 5727 5725 5721 5718 5715 5712 5708 5705 5702 5700 5696 5693 5689 5685 5682 5679 5676 5673 5669 5667 5664 5661 5659
5718 5721 5723 5725 5727 5728 5729 5731 5731 5732 5731 5732 5731 5730 5728 5727 5725 5723 5721 5718 5715 5712 5709 5705 5702 5699 5695 5691 5688 5684 5680 5677 5673 5669 5665 5661 5658 5655 5652 5649 5645 5642 5640
5706 5708 5710 5712 5715 5717 5718 5720 5721 5721 5721 5721 5720 5719 5717 5715 5714 5712 5709 5706 5703 5701 5697 5691 5688 5686 5682 5678 5674 5670 5666 5661 5657 5652 5647 5643 5640 5636 5632 5629 5626 5623 5620
5691 5694 5697 5699 5702 5703 5706 5709 5710 5710 5710 5710 5709 5705 5704 5703 5702 5700 5697 5694 5692 5689 5685 5680 5675 5672 5668 5663 5658 5655 5650 5646 5641 5636 5631 5627 5622 5618 5614 5610 5606 5603 5599
5676 5680 5684 5687 5690 5692 5694 5697 5699 5700 5700 5700 5699 5693 5695 5692 5691 5689 5686 5682 5679 5676 5673 5668 5663 5659 5654 5647 5642 5637 5633 5628 5624 5619 5613 5609 5604 5599 5594 5590 5585 5579 5574
5661 5665 5670 5673 5677 5680 5683 5686 5688 5689 5690 5689 5689 5687 5684 5681 5679 5676 5673 5671 5667 5662 5660 5654 5649 5644 5638 5631 5626 5620 5615 5610 5605 5598 5593 5588 5583 5577 5572 5566 5560 5555 5550
5645 5651 5657 5661 5666 5669 5672 5675 5677 5678 5679 5678 5677 5677 5675 5671 5668 5664 5660 5656 5652 5648 5645 5640 5634 5628 5621 5614 5609 5605 5597 5591 5585 5578 5572 5566 5559 5553 5547 5541 5534 5527 5521
5629 5637 5644 5650 5654 5658 5662 5664 5666 5667 5668 5667 5665 5663 5660 5659 5655 5651 5647 5643 5638 5634 5629 5624 5617 5610 5604 5596 5590 5585 5579 5572 5564 5556 5549 5544 5536 5528 5519 5512 5504 5496 5488
5614 5622 5630 5638 5644 5649 5652 5653 5656 5657 5657 5656 5653 5651 5648 5644 5641 5638 5633 5628 5623 5618 5611 5605 5599 5592 5586 5577 5572 5566 5562 5552 5546 5535 5528 5521 5511 5502 5491 5481 5472 5464 5456
5602 5610 5618 5627 5632 5641 5634 5641 5645 5646 5646 5644 5642 5638 5636 5631 5628 5624 5619 5614 5608 5601 5593 5587 5580 5573 5567 5558 5552 5547 5540 5535 5526 5515 5508 5497 5488 5477 5464 5454 5445 5437 5431
5593 5600 5609 5616 5623 5628 5628 5632 5633 5635 5635 5633 5630 5627 5622 5619 5612 5609 5604 5597 5591 5584 5576 5569 5562 5554 5546 5539 5534 5526 5519 5512 5507 5493 5487 5478 5462 5454 5442 5435 5425 5415 5406
5587 5595 5601 5607 5614 5619 5623 5624 5624 5624 5623 5620 5618 5614 5611 5606 5601 5595 5587 5580 5572 5565 5556 5549 5542 5532 5526 5519 5513 5506 5498 5489 5482 5470 5464 5461 5441 5436 5426 5417 5404 5394 5384
5584 5591 5597 5603 5607 5614 5617 5614 5614 5614 5613 5610 5605 5601 5599 5592 5585 5579 5573 5564 5557 5547 5537 5528 5518 5512 5504 5496 5488 5483 5476 5469 5460 5448 5435 5438 5425 5421 5412 5400 5389 5379 5369
5584 5589 5594 5597 5601 5606 5608 5608 5608 5604 5602 5596 5591 5589 5586 5579 5572 5562 5556 5549 5540 5528 5518 5506 5497 5489 5480 5471 5463 5459 5451 5445 5439 5430 5416 5418 5411 5405 5395 5386 5376 5367 5359
5584 5588 5589 5594 5599 5600 5600 5599 5597 5594 5591 5587 5583 5578 5572 5565 5554 5546 5538 5529 5519 5508 5497 5483 5471 5460 5453 5446 5439 5435 5430 5425 5421 5419 5405 5404 5395 5387 5386 5375 5367 5359 5351